User: anonymous   Login
Location: Caltech
(34.1382°N, 118.1253°W)
Time: 18:48:09
(UTC-07:00)
Language:

Gurwin Techsat 1B - Orbit

View from above orbital plane
View from above orbital plane
View from above satellite
View from above satellite

Ground track
Ground track

The orbit data is extracted from the following two-line orbital elements,

1 25397U 98043D   15084.95075457  .00000129  00000-0  75188-4 0  9995
2 25397 098.5109 038.0429 0001182 151.3774 248.8738 14.23527860867959
Epoch (UTC): 25 March 2015 22:49:05
Eccentricity: 0.0001182
inclination: 98.5109°
perigee height: 812 km
apogee height: 814 km
right ascension of ascending node: 38.0429°
argument of perigee: 151.3774°
revolutions per day: 14.23527860
mean anomaly at epoch: 248.8738°
orbit number at epoch: 86795

The dashed part of the orbit path shows where the satellite is in the earth's shadow,  

DLR